Location: Waco, TX
(31.5480°N, 97.1670°W)
Time: 03:01:12
(UTC-05:00)

ISS - Pass Details

Date: 22 September 2017
Orbit: 401 x 407 km, 51.6° (Epoch: 22 September)

Event Time Altitude Azimuth Distance (km) Brightness Sun altitude
Rises 21:22:39 0° 230° (SW) 2,303 0.4 -25.6°
Reaches altitude 10° 21:24:44 10° 233° (SW) 1,448 -0.6 -26.0°
Enters shadow 21:25:18 14° 235° (SW) 1,220 -1.0 -26.1°
Maximum altitude 21:27:57 64° 316° (NW) 448 - -26.7°
Drops below altitude 10° 21:31:12 10° 39° (NE) 1,459 - -27.3°
Sets 21:33:18 0° 42° (NE) 2,322 - -27.8°
